Showing default

OPS 6564 (VELA 6), 1459

Orbit data source: Space-Track

OPS 6564 (VELA 6), 1459 is a payload satellite owned by USAF SSD (US) in HEO that was launched on Tue, 20 Jul 1965 UTC via an ATLAS AGENA D launch vehicle from the Air Force Eastern Test Range (AFETR). Payload-class satellites include a variety of spacecraft equipped with specific instruments for various scientific and technological missions. These include communications satellites like Starlink; space stations such as the ISS; scientific satellites like the Hubble; Earth observation satellites from companies like Planet Labs, Umbra, and HawkEye 360; GPS; miniature CubeSats for education and research; and military/defense satellites.

Loading next visibility...
Identifier
1459, 1965-058B
Orbit
HEO
Last TLE update
4 months ago
Origin
Manufacturer
TRW
Mission
Defense Early Warn
Bus & Motor
VELA, BE-3A
Mass
~224 kg wet, 132 kg dry
Launch date (UTC)
1965-07-20 (60 years ago)
Launch vehicle
ATLAS AGENA D
Launch site
Air Force Eastern Test Range (AFETR)
Object type
Payload
Rocket body
Debris
Shape & HBR
Poly, 1.4 m
Radar Cross Section
2.240 m²

Expand to show TLE details & history

TLE from 4 months ago
0 OPS 6564 (VELA 6)
1  1459U 65058B   24359.09637321 -.00001477  00000-0  00000+0 0  9996
2  1459  41.0856  15.1191 4723393  69.8144   0.2475  0.21401416 46890
Epoch: 2024-12-24T02:18Z
Definitive object data (Epoch: 2024-12-24T02:18:46.645Z)
Latitude
38.00418°
Longitude
-48.83357°
Altitude
54,976.42 km
Speed
3.101 km/s
True Right ascension
05h 15m 52s
True Declination
37° 59' 05"
Sunlit
Object was in daylight at TLE epoch
Visualization TLE readout
Latitude
5.74507°
Longitude
58.16399°
Altitude
90,632.888 km
Speed
2.2 km/s
Apparent Right ascension
12h 18m 38s
Apparent Declination
3° 30' 03"
Sunlit
Object is in daylight
Visualization observer readout
Local Sidereal Time
14:05:39
Azimuth
220.56° SW
Elevation
46.283°
Doppler factor
1
Orbital elements
Apogee altitude
167,448.253 km
Perigee altitude
55,918.207 km
Semi-major axis
118,061.367 km
Eccentricity
0.4723393
Inclination
41.0856°
RAAN
15.1191°
Arg. of periapsis
69.8144°
True anomaly
0.7835°
Mean anomaly
0.2475°
Eccentric anomaly
0.46905°
Mean motion
0.0535 °/min
BSTAR
Unknown
Orbital period
6728.54 mins
Loading maneuver chart data...
Loading SW <> Apogee altitude chart data...
Loading historical data...
Loading historical data...
Loading historical data...
Loading historical data...
Loading historical data...
Loading historical data...
Loading historical data...
Other satellites on launch #58 in the year 1965 (1965-07-20 UTC)

OPS 6564 (VELA 6) Visibility forecast

Observer location: undefined°, undefined°

Span
Click to sort rows by Start time (UTC) header in descending order
Start Az.
Max El. time (UTC)
Max El. Az.
Max El.
End time (UTC)
End Az.
216 mins2025-05-09 05:56:54.648Z220.553° SW2025-05-09 05:56:54.648Z220.553° SW35.855°2025-05-09 09:32:54.648Z254.27° W
86 mins2025-05-10 04:30:54.648Z144.949° SSE2025-05-10 05:56:54.648Z161.589° S15.422°2025-05-10 05:56:54.648Z161.589° S
|